Regional Weather Roundup
Issued by NWS Cleveland, OH

Home | Current Version | Previous Version | Graphics & Text | Print | Product List | Glossary On
Versions: 1 2 3 4 5 6 7 8 9 10 11 12 13 14 15 16 17 18 19 20 21 22 23 24 25 26 27 28 29 30 31 32 33 34 35 36 37 38 39 40 41 42 43 44 45 46 47 48 49 50
681
ASUS41 KCLE 290310
RWRCLE
OHIO REGIONAL WEATHER ROUNDUP
NATIONAL WEATHER SERVICE WILMINGTON, OH
1100 PM EDT WED JUN 28 2017

NOTE: "FAIR" INDICATES FEW OR NO CLOUDS BELOW 12,000 FEET WITH NO
SIGNIFICANT WEATHER AND/OR OBSTRUCTIONS TO VISIBILITY.

OHZ001>008-015>018-024>027-034-035-043-044-290400-
   NORTHWEST OHIO

CITY           SKY/WX    TMP DP  RH WIND       PRES   REMARKS
DEFIANCE       FAIR      71  52  50 S12       29.94F
FINDLAY        FAIR      69  52  54 S10       29.99R
TOLEDO EXPRESS FAIR      71  54  54 S10       29.94S
TOLEDO EXEC    FAIR      72  54  53 S14       29.96R
LIMA           FAIR      69  55  60 S9        30.00R
$$

OHZ009>014-019>023-028>033-038-089-290400-
   NORTHEAST OHIO

CITY           SKY/WX    TMP DP  RH WIND       PRES   REMARKS
CLE-HOPKINS    CLOUDY    73  53  49 S12       30.03R
CLE-LAKEFRONT  MOCLDY    73  51  46 S12G20    30.00R
CUY CO. ARPT   CLOUDY    72  54  53 S15       30.03
LORAIN-ELYRIA  FAIR      70  49  47 S13       30.02R
ASHTABULA      FAIR      67  53  61 S6        30.05R
AKRON-CANTON   FAIR      68  53  58 S9        30.06R
WOOSTER        FAIR      66  53  63 S9        30.05S
MANSFIELD      FAIR      66  53  63 S9        30.04R
YOUNGSTOWN     MOCLDY    67  51  56 S7        30.06R
$$

OHZ042-051>053-060>062-070>072-077>081-290400-
  SOUTHWEST OHIO

CITY           SKY/WX    TMP DP  RH WIND       PRES   REMARKS
CINC-COVINGTON CLOUDY    69  58  67 S6        30.03R
CINC-LUNKEN    FAIR      65  60  84 CALM      30.03R
HAMILTON       FAIR      69  56  62 S5        30.03R
DAYTON         FAIR      69  53  56 S7        30.04R
WRIGHT-PAT AFB FAIR      69  54  58 SE5       30.03R
DAYTON GENERAL FAIR      68  55  63 S7        30.02R
WILMINGTON     FAIR      65  56  72 S3        30.04R
$$

OHZ036-037-039>041-045>050-054>059-063>069-073>076-082>088-290400-
  CENTRAL AND SOUTHEAST OHIO

CITY           SKY/WX    TMP DP  RH WIND       PRES   REMARKS
COLUMBUS       CLOUDY    70  54  56 S7        30.04R
OSU AIRPORT    FAIR      70  56  61 S7        30.04R
BOLTON FIELD   FAIR      65  55  68 S6        30.04S
RICKENBACK AFB FAIR      65  54  68 S5        30.03S
NEWARK         FAIR      66  54  65 S5        30.04R
MARION         FAIR      66  54  65 S8        30.02S
LANCASTER      FAIR      62  54  74 CALM      30.06R
ZANESVILLE     FAIR      63  55  75 CALM      30.07R
NEW PHILLY     FAIR      63  56  78 SE6       30.07R
$$




USA.gov is the U.S. government's official web portal to all federal, state and local government web resources and services.